Location: Gunnedah
(30.9923°S, 150.2369°E)
Time: 07:51:35
(UTC+10:00)

N. Korean satellite - Visible Passes

Search period start: 24 August 2019 00:00
Search period end: 03 September 2019 00:00
Orbit: 457 x 507 km, 97.2° (Epoch: 23 August)

Date Brightness Start Highest point End Pass type
(mag) Time Alt. Az. Time Alt. Az. Time Alt. Az.
24 Aug 8.6 04:46:59 10° NE 04:49:59 28° ESE 04:53:01 10° SSE visible
25 Aug 9.8 04:23:22 10° E 04:25:01 13° ESE 04:26:38 10° SE visible
25 Aug 7.6 05:55:18 10° NNW 05:58:08 24° W 06:01:00 10° SW visible
25 Aug 10.2 19:02:01 10° WSW 19:02:40 10° WSW 19:03:18 10° W visible
26 Aug 6.5 05:29:31 10° N 05:32:55 58° W 05:36:22 10° SSW visible
26 Aug 9.3 18:34:49 10° SSW 18:37:42 22° WSW 18:40:35 10° NW visible
27 Aug 7.3 05:04:25 10° NNE 05:07:47 53° ESE 05:11:12 10° S visible
27 Aug 7.7 18:09:06 10° S 18:12:40 50° WSW 18:16:14 10° NNW visible
28 Aug 9.0 04:40:00 10° NE 04:42:44 22° ESE 04:45:31 10° SSE visible
29 Aug 10.0 04:17:16 10° ESE 04:17:46 10° ESE 04:18:16 10° ESE visible
29 Aug 7.3 05:47:44 10° NNW 05:50:48 30° W 05:53:55 10° SW visible
29 Aug 9.9 18:53:41 10° SW 18:55:27 13° WSW 18:57:14 10° W visible
30 Aug 6.3 05:22:10 10° N 05:25:36 77° WNW 05:29:06 10° SSW visible
30 Aug 9.0 18:27:17 10° SSW 18:30:28 27° WSW 18:33:39 10° NW visible
31 Aug 7.9 04:57:14 10° NNE 05:00:30 40° ESE 05:03:48 10° S visible
31 Aug 7.2 18:01:44 10° S 18:05:24 64° WSW 18:09:04 10° NNW visible
01 Sep 9.4 04:33:03 10° ENE 04:35:28 18° ESE 04:37:55 10° SSE visible
02 Sep 7.0 05:40:14 10° NNW 05:43:28 38° W 05:46:46 10° SSW visible
02 Sep 9.8 18:45:51 10° SSW 18:48:13 16° WSW 18:50:35 10° WNW visible
